No particular awareness of the weather is required.    There are no Weather-warnings


Meteo18 Weather Cam more information Meteo18 Weather Cam


Thunder radar more information blitzortung!


Rain radar more information rain snow radar


Visit our other weather sites:

Template documentation
and downloads

And another site



Weather Underground History page Text

Daily Summary for July 13, 2017 Units:  English    Metric   Both
« Previous Day
Next Day »
Daily Weekly Monthly Yearly Custom
  High: Low: Average:
Temperature: TemperatureC °F 17.2 °F 20.4 °F
Dew Point: DewpointC °F 14.0 °F 15.6 °F
Humidity: Humidity % 52 % 75 %
Wind Speed: WindSpeedKMH mph 0.0 mph 4.6 mph
Wind Gust: WindSpeedGustKMH mph - -
Wind:- - WSW
Pressure: PressurehPa in 1019.2 in -
Precipitation: 0.0 in    
Historical Graphs
 
 
Tabular Data for July 13, 2017
Time Temperature Dew Point Pressure Wind Wind Speed Wind Gust Humidity Rainfall Rate (Hourly)
TemperatureC °F DewpointC °F PressurehPa in Calm     Humidity % HourlyPrecipMM in
00:02 18.0 °F 16.2 °F 1022.2 in WSW 3.2 mph 6.4 mph 89 % 0.0 in
00:12 17.9 °F 16.2 °F 1022.2 in SSW 1.6 mph 6.4 mph 90 % 0.0 in
00:22 17.6 °F 16.1 °F 1022.2 in SW 4.8 mph 6.4 mph 91 % 0.0 in
00:32 17.6 °F 16.1 °F 1022.2 in SW 3.2 mph 6.4 mph 91 % 0.0 in
00:42 17.4 °F 16.1 °F 1022.2 in SW 6.4 mph 6.4 mph 92 % 0.0 in
00:47 17.5 °F 16.2 °F 1022.2 in WSW 1.6 mph 8.0 mph 92 % 0.0 in
00:52 17.5 °F 16.2 °F 1022.2 in SW 6.4 mph 9.7 mph 92 % 0.0 in
00:57 17.6 °F 16.3 °F 1022.2 in Calm   9.7 mph 92 % 0.0 in
01:02 17.5 °F 16.2 °F 1022.2 in WSW 1.6 mph 9.7 mph 92 % 0.0 in
01:12 17.5 °F 16.2 °F 1022.2 in Calm   6.4 mph 92 % 0.0 in
01:17 17.5 °F 16.4 °F 1022.2 in WSW 1.6 mph 6.4 mph 93 % 0.0 in
01:22 17.5 °F 16.4 °F 1022.2 in West 1.6 mph 6.4 mph 93 % 0.0 in
01:27 17.5 °F 16.4 °F 1022.2 in West 3.2 mph 6.4 mph 93 % 0.0 in
01:32 17.5 °F 16.4 °F 1021.9 in WSW 1.6 mph 6.4 mph 93 % 0.0 in
01:37 17.5 °F 16.4 °F 1021.9 in West 1.6 mph 6.4 mph 93 % 0.0 in
01:42 17.5 °F 16.4 °F 1021.9 in WSW 1.6 mph 6.4 mph 93 % 0.0 in
01:52 17.5 °F 16.4 °F 1021.9 in WSW 3.2 mph 6.4 mph 93 % 0.0 in
01:57 17.6 °F 16.5 °F 1021.9 in WSW 1.6 mph 6.4 mph 93 % 0.0 in
02:02 17.6 °F 16.5 °F 1021.9 in WSW 6.4 mph 6.4 mph 93 % 0.0 in
02:07 17.6 °F 16.5 °F 1021.9 in SSW 4.8 mph 8.0 mph 93 % 0.0 in
02:12 17.6 °F 16.5 °F 1021.9 in WSW 3.2 mph 8.0 mph 93 % 0.0 in
02:17 17.6 °F 16.5 °F 1021.9 in SW 3.2 mph 8.0 mph 93 % 0.0 in
02:22 17.5 °F 16.4 °F 1021.9 in SW 3.2 mph 8.0 mph 93 % 0.0 in
02:32 17.4 °F 16.3 °F 1021.9 in SW 3.2 mph 4.8 mph 93 % 0.0 in
02:37 17.4 °F 16.3 °F 1021.9 in SW 3.2 mph 8.0 mph 93 % 0.0 in
02:42 17.4 °F 16.3 °F 1021.9 in SW 1.6 mph 8.0 mph 93 % 0.0 in
02:47 17.4 °F 16.3 °F 1021.9 in WSW 3.2 mph 8.0 mph 93 % 0.0 in
02:52 17.3 °F 16.2 °F 1021.9 in Calm   8.0 mph 93 % 0.0 in
02:57 17.3 °F 16.2 °F 1021.9 in Calm   4.8 mph 93 % 0.0 in
03:02 17.3 °F 16.2 °F 1021.9 in Calm   4.8 mph 93 % 0.0 in
03:07 17.3 °F 16.2 °F 1021.9 in Calm   1.6 mph 93 % 0.0 in
03:12 17.3 °F 16.3 °F 1021.9 in Calm   6.4 mph 94 % 0.0 in
03:17 17.3 °F 16.2 °F 1021.9 in Calm   6.4 mph 93 % 0.0 in
03:22 17.4 °F 16.3 °F 1021.9 in West 1.6 mph 6.4 mph 93 % 0.0 in
03:32 17.4 °F 16.3 °F 1021.6 in WSW 1.6 mph 3.2 mph 93 % 0.0 in
03:37 17.5 °F 16.4 °F 1021.6 in WNW 3.2 mph 4.8 mph 93 % 0.0 in
03:42 17.5 °F 16.4 °F 1021.6 in West 1.6 mph 6.4 mph 93 % 0.0 in
03:47 17.5 °F 16.4 °F 1021.6 in WSW 3.2 mph 6.4 mph 93 % 0.0 in
03:52 17.4 °F 16.3 °F 1021.6 in West 1.6 mph 6.4 mph 93 % 0.0 in
03:57 17.4 °F 16.3 °F 1021.6 in West 1.6 mph 4.8 mph 93 % 0.0 in
04:02 17.4 °F 16.3 °F 1021.6 in Calm   4.8 mph 93 % 0.0 in
04:12 17.4 °F 16.3 °F 1021.6 in Calm   3.2 mph 93 % 0.0 in
04:17 17.4 °F 16.3 °F 1021.6 in Calm   3.2 mph 93 % 0.0 in
04:22 17.4 °F 16.3 °F 1021.6 in West 1.6 mph 3.2 mph 93 % 0.0 in
04:27 17.4 °F 16.1 °F 1021.6 in West 1.6 mph 4.8 mph 92 % 0.0 in
04:32 17.4 °F 16.1 °F 1021.6 in SW 1.6 mph 4.8 mph 92 % 0.0 in
04:37 17.4 °F 16.1 °F 1021.6 in Calm   4.8 mph 92 % 0.0 in
04:42 17.4 °F 16.1 °F 1021.6 in Calm   4.8 mph 92 % 0.0 in
04:47 17.4 °F 16.1 °F 1021.6 in Calm   3.2 mph 92 % 0.0 in
04:52 17.4 °F 16.1 °F 1021.6 in Calm   3.2 mph 92 % 0.0 in
04:57 17.4 °F 16.1 °F 1021.6 in Calm   1.6 mph 92 % 0.0 in
05:02 17.4 °F 16.1 °F 1021.6 in Calm   1.6 mph 92 % 0.0 in
05:07 17.4 °F 16.1 °F 1021.6 in WSW 3.2 mph 3.2 mph 92 % 0.0 in
05:12 17.4 °F 16.1 °F 1021.6 in West 3.2 mph 4.8 mph 92 % 0.0 in
05:17 17.4 °F 16.1 °F 1021.6 in WSW 1.6 mph 4.8 mph 92 % 0.0 in
05:27 17.4 °F 16.1 °F 1021.6 in SW 3.2 mph 4.8 mph 92 % 0.0 in
05:32 17.4 °F 16.1 °F 1021.6 in WSW 3.2 mph 4.8 mph 92 % 0.0 in
05:37 17.4 °F 16.1 °F 1021.6 in West 1.6 mph 6.4 mph 92 % 0.0 in
05:42 17.4 °F 16.1 °F 1021.6 in West 1.6 mph 6.4 mph 92 % 0.0 in
05:47 17.4 °F 15.9 °F 1021.6 in SW 4.8 mph 6.4 mph 91 % 0.0 in
05:52 17.4 °F 15.9 °F 1021.6 in WSW 1.6 mph 4.8 mph 91 % 0.0 in
05:57 17.4 °F 15.9 °F 1021.6 in Calm   4.8 mph 91 % 0.0 in
06:02 17.4 °F 15.9 °F 1021.6 in Calm   6.4 mph 91 % 0.0 in
06:07 17.3 °F 15.8 °F 1021.6 in Calm   6.4 mph 91 % 0.0 in
06:12 17.3 °F 15.8 °F 1021.6 in Calm   6.4 mph 91 % 0.0 in
06:17 17.3 °F 15.8 °F 1021.6 in Calm   4.8 mph 91 % 0.0 in
06:22 17.3 °F 15.8 °F 1021.6 in WSW 4.8 mph 6.4 mph 91 % 0.0 in
06:32 17.3 °F 15.8 °F 1021.6 in Calm   8.0 mph 91 % 0.0 in
06:37 17.2 °F 15.9 °F 1021.6 in WSW 1.6 mph 8.0 mph 92 % 0.0 in
06:42 17.2 °F 15.9 °F 1021.6 in SW 3.2 mph 6.4 mph 92 % 0.0 in
06:47 17.2 °F 15.9 °F 1021.6 in WSW 1.6 mph 6.4 mph 92 % 0.0 in
06:52 17.2 °F 15.9 °F 1021.6 in Calm   8.0 mph 92 % 0.0 in
06:57 17.2 °F 15.9 °F 1021.6 in SW 1.6 mph 8.0 mph 92 % 0.0 in
07:02 17.2 °F 15.9 °F 1021.6 in WNW 3.2 mph 8.0 mph 92 % 0.0 in
07:07 17.2 °F 15.9 °F 1021.6 in West 1.6 mph 8.0 mph 92 % 0.0 in
07:12 17.3 °F 16.0 °F 1021.9 in Calm   6.4 mph 92 % 0.0 in
07:17 17.3 °F 16.0 °F 1021.6 in Calm   6.4 mph 92 % 0.0 in
07:22 17.3 °F 16.0 °F 1021.6 in Calm   4.8 mph 92 % 0.0 in
07:27 17.3 °F 16.0 °F 1021.6 in Calm   3.2 mph 92 % 0.0 in
07:32 17.3 °F 16.0 °F 1021.6 in Calm     92 % 0.0 in
07:37 17.3 °F 16.0 °F 1021.6 in Calm     92 % 0.0 in
07:42 17.4 °F 16.1 °F 1021.6 in Calm     92 % 0.0 in
07:47 17.4 °F 16.1 °F 1021.9 in West 1.6 mph   92 % 0.0 in
07:52 17.4 °F 15.9 °F 1021.6 in West 3.2 mph 6.4 mph 91 % 0.0 in
07:57 17.5 °F 16.0 °F 1021.9 in WNW 4.8 mph 6.4 mph 91 % 0.0 in
08:02 17.6 °F 16.1 °F 1021.9 in WSW 3.2 mph 6.4 mph 91 % 0.0 in
08:12 17.6 °F 16.1 °F 1021.9 in West 1.6 mph 6.4 mph 91 % 0.0 in
08:22 17.8 °F 16.1 °F 1021.9 in WNW 3.2 mph 8.0 mph 90 % 0.0 in
08:32 17.9 °F 16.2 °F 1021.9 in West 1.6 mph 8.0 mph 90 % 0.0 in
08:37 17.9 °F 16.1 °F 1021.9 in West 3.2 mph 8.0 mph 89 % 0.0 in
08:42 18.0 °F 16.2 °F 1021.9 in West 3.2 mph 6.4 mph 89 % 0.0 in
08:47 18.1 °F 16.3 °F 1021.9 in WSW 4.8 mph 8.0 mph 89 % 0.0 in
08:52 18.1 °F 16.1 °F 1021.9 in West 4.8 mph 8.0 mph 88 % 0.0 in
08:57 18.3 °F 16.3 °F 1021.9 in WNW 6.4 mph 8.0 mph 88 % 0.0 in
09:02 18.3 °F 16.3 °F 1021.9 in Calm   8.0 mph 88 % 0.0 in
09:07 18.4 °F 16.2 °F 1021.9 in WNW 4.8 mph 8.0 mph 87 % 0.0 in
09:12 18.3 °F 15.9 °F 1021.9 in SW 8.0 mph 8.0 mph 86 % 0.0 in
09:17 18.4 °F 16.2 °F 1021.9 in WNW 4.8 mph 9.7 mph 87 % 0.0 in
09:22 18.5 °F 16.3 °F 1022.2 in WNW 4.8 mph 9.7 mph 87 % 0.0 in
09:27 18.4 °F 16.0 °F 1022.2 in West 8.0 mph 9.7 mph 86 % 0.0 in
09:37 18.6 °F 16.2 °F 1021.9 in West 4.8 mph 8.0 mph 86 % 0.0 in
09:42 18.7 °F 16.3 °F 1021.9 in SW 4.8 mph 8.0 mph 86 % 0.0 in
09:47 18.7 °F 16.3 °F 1021.9 in West 4.8 mph 11.3 mph 86 % 0.0 in
09:52 18.8 °F 16.4 °F 1021.9 in WSW 4.8 mph 11.3 mph 86 % 0.0 in
09:57 18.9 °F 16.3 °F 1021.9 in West 6.4 mph 11.3 mph 85 % 0.0 in
10:02 19.0 °F 16.4 °F 1021.9 in West 3.2 mph 11.3 mph 85 % 0.0 in
10:07 19.2 °F 16.6 °F 1021.9 in NW 1.6 mph 9.7 mph 85 % 0.0 in
10:12 19.2 °F 16.4 °F 1021.9 in SSW 4.8 mph 9.7 mph 84 % 0.0 in
10:17 19.3 °F 16.7 °F 1021.9 in SW 3.2 mph 9.7 mph 85 % 0.0 in
10:22 19.5 °F 16.7 °F 1021.9 in SSW 1.6 mph 9.7 mph 84 % 0.0 in
10:32 19.6 °F 16.8 °F 1021.9 in Calm   11.3 mph 84 % 0.0 in
10:37 19.8 °F 16.6 °F 1021.9 in West 4.8 mph 11.3 mph 82 % 0.0 in
10:42 20.1 °F 16.3 °F 1021.9 in WNW 4.8 mph 11.3 mph 79 % 0.0 in
10:47 20.2 °F 16.0 °F 1021.9 in West 6.4 mph 12.9 mph 77 % 0.0 in
10:52 20.5 °F 16.5 °F 1021.6 in Calm   12.9 mph 78 % 0.0 in
10:57 20.6 °F 16.2 °F 1021.6 in West 3.2 mph 12.9 mph 76 % 0.0 in
11:02 20.8 °F 16.6 °F 1021.6 in SW 11.3 mph 12.9 mph 77 % 0.0 in
11:12 20.7 °F 16.1 °F 1021.6 in WSW 4.8 mph 12.9 mph 75 % 0.0 in
11:17 20.7 °F 15.9 °F 1021.6 in WNW 3.2 mph 12.9 mph 74 % 0.0 in
11:22 21.1 °F 16.3 °F 1021.6 in Calm   12.9 mph 74 % 0.0 in
11:32 21.5 °F 15.8 °F 1021.6 in WNW 1.6 mph 9.7 mph 70 % 0.0 in
11:37 21.6 °F 15.2 °F 1021.6 in WSW 8.0 mph 12.9 mph 67 % 0.0 in
11:42 22.0 °F 16.3 °F 1021.2 in WSW 6.4 mph 12.9 mph 70 % 0.0 in
11:47 22.3 °F 15.4 °F 1021.2 in SW 4.8 mph 12.9 mph 65 % 0.0 in
11:52 22.3 °F 15.2 °F 1021.2 in West 9.7 mph 12.9 mph 64 % 0.0 in
11:57 22.0 °F 14.9 °F 1021.2 in WSW 4.8 mph 14.5 mph 64 % 0.0 in
12:02 21.9 °F 15.0 °F 1021.2 in SSW 6.4 mph 14.5 mph 65 % 0.0 in
12:12 21.6 °F 15.2 °F 1021.2 in West 3.2 mph 14.5 mph 67 % 0.0 in
12:17 21.6 °F 15.0 °F 1021.2 in SW 8.0 mph 14.5 mph 66 % 0.0 in
12:22 21.6 °F 15.4 °F 1021.2 in SW 1.6 mph 12.9 mph 68 % 0.0 in
12:27 21.7 °F 15.8 °F 1021.2 in Calm   12.9 mph 69 % 0.0 in
12:32 21.9 °F 15.3 °F 1021.2 in West 4.8 mph 12.9 mph 66 % 0.0 in
12:42 22.1 °F 15.7 °F 1020.9 in WSW 12.9 mph 14.5 mph 67 % 0.0 in
12:47 21.9 °F 15.7 °F 1021.2 in SW 1.6 mph 14.5 mph 68 % 0.0 in
12:52 21.9 °F 15.7 °F 1020.9 in WSW 8.0 mph 16.1 mph 68 % 0.0 in
12:57 22.1 °F 15.9 °F 1020.9 in West 12.9 mph 16.1 mph 68 % 0.0 in
13:02 22.0 °F 15.6 °F 1021.2 in SW 12.9 mph 16.1 mph 67 % 0.0 in
13:12 22.2 °F 16.0 °F 1020.9 in SSW 6.4 mph 17.7 mph 68 % 0.0 in
13:17 22.5 °F 16.1 °F 1020.9 in WNW 8.0 mph 17.7 mph 67 % 0.0 in
13:22 22.9 °F 16.2 °F 1020.9 in SSW 4.8 mph 17.7 mph 66 % 0.0 in
13:32 23.3 °F 15.6 °F 1020.9 in WSW 9.7 mph 17.7 mph 62 % 0.0 in
13:37 23.4 °F 16.2 °F 1020.9 in SW 12.9 mph 17.7 mph 64 % 0.0 in
13:47 23.1 °F 15.7 °F 1020.9 in SW 1.6 mph 19.3 mph 63 % 0.0 in
13:52 22.9 °F 15.0 °F 1020.9 in SSW 6.4 mph 19.3 mph 61 % 0.0 in
13:57 23.0 °F 15.6 °F 1020.9 in WSW 8.0 mph 14.5 mph 63 % 0.0 in
14:02 23.2 °F 16.3 °F 1020.9 in SW 11.3 mph 16.1 mph 65 % 0.0 in
14:12 22.9 °F 16.4 °F 1020.5 in WSW 17.7 mph 17.7 mph 67 % 0.0 in
14:17 23.2 °F 16.0 °F 1020.5 in SW 3.2 mph 17.7 mph 64 % 0.0 in
14:22 23.1 °F 15.4 °F 1020.5 in WSW 12.9 mph 17.7 mph 62 % 0.0 in
14:32 23.3 °F 15.4 °F 1020.5 in WSW 6.4 mph 19.3 mph 61 % 0.0 in
14:37 23.6 °F 15.4 °F 1020.5 in West 4.8 mph 19.3 mph 60 % 0.0 in
14:42 23.4 °F 15.4 °F 1020.5 in West 8.0 mph 17.7 mph 61 % 0.0 in
14:52 23.3 °F 15.4 °F 1020.5 in WNW 9.7 mph 19.3 mph 61 % 0.0 in
14:57 23.7 °F 15.7 °F 1020.2 in WSW 12.9 mph 19.3 mph 61 % 0.0 in
15:02 23.9 °F 15.4 °F 1020.5 in West 9.7 mph 20.9 mph 59 % 0.0 in
15:07 24.1 °F 15.6 °F 1020.2 in West 17.7 mph 20.9 mph 59 % 0.0 in
15:12 24.1 °F 15.3 °F 1020.5 in West 6.4 mph 20.9 mph 58 % 0.0 in
15:17 24.3 °F 15.5 °F 1020.2 in WNW 8.0 mph 20.9 mph 58 % 0.0 in
15:22 24.4 °F 15.1 °F 1020.2 in Calm   20.9 mph 56 % 0.0 in
15:27 24.8 °F 15.4 °F 1020.2 in WNW 11.3 mph 19.3 mph 56 % 0.0 in
15:32 24.9 °F 15.5 °F 1020.2 in WSW 19.3 mph 19.3 mph 56 % 0.0 in
15:42 24.0 °F 15.0 °F 1020.2 in WSW 6.4 mph 19.3 mph 57 % 0.0 in
15:47 23.9 °F 15.1 °F 1019.9 in SSW 3.2 mph 19.3 mph 58 % 0.0 in
15:52 24.1 °F 15.6 °F 1019.9 in WSW 4.8 mph 19.3 mph 59 % 0.0 in
15:57 24.2 °F 15.1 °F 1019.9 in West 6.4 mph 19.3 mph 57 % 0.0 in
16:02 24.2 °F 15.4 °F 1019.9 in West 11.3 mph 19.3 mph 58 % 0.0 in
16:07 24.1 °F 14.5 °F 1019.9 in WNW 11.3 mph 19.3 mph 55 % 0.0 in
16:12 24.1 °F 15.3 °F 1019.9 in West 20.9 mph 27.4 mph 58 % 0.0 in
16:17 24.6 °F 15.8 °F 1019.9 in SW 9.7 mph 27.4 mph 58 % 0.0 in
16:22 24.8 °F 16.5 °F 1019.9 in West 9.7 mph 22.5 mph 60 % 0.0 in
16:32 24.7 °F 14.8 °F 1019.9 in WSW 16.1 mph 22.5 mph 54 % 0.0 in
16:42 24.6 °F 14.4 °F 1019.9 in WNW 11.3 mph 20.9 mph 53 % 0.0 in
16:47 24.6 °F 15.0 °F 1019.9 in West 4.8 mph 22.5 mph 55 % 0.0 in
16:52 24.4 °F 14.5 °F 1019.9 in WNW 14.5 mph 22.5 mph 54 % 0.0 in
16:57 24.3 °F 14.7 °F 1019.9 in WSW 11.3 mph 20.9 mph 55 % 0.0 in
17:02 24.6 °F 14.7 °F 1019.9 in West 14.5 mph 20.9 mph 54 % 0.0 in
17:12 25.1 °F 14.8 °F 1019.9 in WNW 9.7 mph 25.7 mph 53 % 0.0 in
17:17 24.9 °F 14.7 °F 1019.9 in SW 6.4 mph 25.7 mph 53 % 0.0 in
17:22 24.8 °F 14.6 °F 1019.9 in West 12.9 mph 22.5 mph 53 % 0.0 in
17:27 24.5 °F 14.3 °F 1019.9 in WNW 14.5 mph 17.7 mph 53 % 0.0 in
17:32 24.9 °F 14.4 °F 1019.9 in WSW 14.5 mph 20.9 mph 52 % 0.0 in
17:42 24.7 °F 14.2 °F 1019.9 in SW 4.8 mph 20.9 mph 52 % 0.0 in
17:47 24.7 °F 14.5 °F 1019.9 in WNW 11.3 mph 19.3 mph 53 % 0.0 in
17:52 24.5 °F 14.3 °F 1019.5 in West 6.4 mph 19.3 mph 53 % 0.0 in
17:57 24.5 °F 14.0 °F 1019.5 in WSW 12.9 mph 19.3 mph 52 % 0.0 in
18:02 24.4 °F 14.2 °F 1019.5 in West 6.4 mph 19.3 mph 53 % 0.0 in
18:07 24.6 °F 14.7 °F 1019.5 in NNW 4.8 mph 19.3 mph 54 % 0.0 in
18:12 25.2 °F 14.9 °F 1019.5 in WSW 9.7 mph 19.3 mph 53 % 0.0 in
18:17 25.1 °F 14.6 °F 1019.5 in SW 8.0 mph 19.3 mph 52 % 0.0 in
18:22 25.0 °F 15.0 °F 1019.5 in SW 6.4 mph 20.9 mph 54 % 0.0 in
18:32 24.6 °F 14.4 °F 1019.5 in West 6.4 mph 20.9 mph 53 % 0.0 in
18:37 24.7 °F 14.5 °F 1019.2 in SSW 3.2 mph 20.9 mph 53 % 0.0 in
18:42 24.8 °F 14.9 °F 1019.5 in WNW 14.5 mph 20.9 mph 54 % 0.0 in
18:52 24.7 °F 14.8 °F 1019.5 in West 8.0 mph 19.3 mph 54 % 0.0 in
19:02 25.1 °F 14.6 °F 1019.5 in West 9.7 mph 19.3 mph 52 % 0.0 in
19:12 24.6 °F 14.7 °F 1019.5 in West 8.0 mph 22.5 mph 54 % 0.0 in
19:17 24.7 °F 14.8 °F 1019.5 in West 11.3 mph 22.5 mph 54 % 0.0 in
19:22 24.6 °F 14.7 °F 1019.2 in West 6.4 mph 22.5 mph 54 % 0.0 in
19:32 24.6 °F 14.7 °F 1019.5 in WSW 6.4 mph 24.1 mph 54 % 0.0 in
19:37 24.6 °F 14.7 °F 1019.5 in WNW 9.7 mph 24.1 mph 54 % 0.0 in
19:42 24.6 °F 14.7 °F 1019.5 in West 14.5 mph 24.1 mph 54 % 0.0 in
19:47 24.3 °F 14.4 °F 1019.5 in WNW 11.3 mph 19.3 mph 54 % 0.0 in
19:52 24.1 °F 14.5 °F 1019.5 in NNW 6.4 mph 17.7 mph 55 % 0.0 in
20:02 23.6 °F 14.6 °F 1019.5 in WSW 12.9 mph 17.7 mph 57 % 0.0 in
20:12 23.3 °F 14.6 °F 1019.5 in WSW 6.4 mph 14.5 mph 58 % 0.0 in
20:17 23.6 °F 14.6 °F 1019.5 in West 3.2 mph 14.5 mph 57 % 0.0 in
20:22 23.7 °F 14.4 °F 1019.5 in West 6.4 mph 17.7 mph 56 % 0.0 in
20:32 23.8 °F 14.5 °F 1019.5 in West 12.9 mph 17.7 mph 56 % 0.0 in
20:37 23.6 °F 14.9 °F 1019.5 in WSW 12.9 mph 17.7 mph 58 % 0.0 in
20:42 23.4 °F 14.9 °F 1019.5 in West 3.2 mph 17.7 mph 59 % 0.0 in
20:47 23.3 °F 14.8 °F 1019.5 in WSW 3.2 mph 16.1 mph 59 % 0.0 in
20:52 23.1 °F 14.9 °F 1019.5 in WSW 1.6 mph 16.1 mph 60 % 0.0 in
20:57 22.8 °F 14.6 °F 1019.5 in SW 6.4 mph 14.5 mph 60 % 0.0 in
21:02 22.6 °F 14.7 °F 1019.5 in SW 1.6 mph 9.7 mph 61 % 0.0 in
21:07 22.4 °F 15.0 °F 1019.5 in West 3.2 mph 9.7 mph 63 % 0.0 in
21:12 22.2 °F 15.1 °F 1019.5 in WSW 1.6 mph 9.7 mph 64 % 0.0 in
21:17 22.0 °F 14.9 °F 1019.5 in West 1.6 mph 6.4 mph 64 % 0.0 in
21:22 21.9 °F 15.0 °F 1019.5 in Calm   4.8 mph 65 % 0.0 in
21:32 21.6 °F 15.0 °F 1019.5 in Calm   3.2 mph 66 % 0.0 in
21:37 21.4 °F 15.0 °F 1019.9 in Calm   3.2 mph 67 % 0.0 in
21:42 21.2 °F 14.8 °F 1019.9 in Calm   8.0 mph 67 % 0.0 in
21:47 21.0 °F 14.9 °F 1019.9 in Calm   8.0 mph 68 % 0.0 in
21:52 21.0 °F 14.9 °F 1019.9 in Calm   8.0 mph 68 % 0.0 in
21:57 20.9 °F 14.8 °F 1019.9 in Calm   6.4 mph 68 % 0.0 in
22:02 20.9 °F 15.0 °F 1019.9 in WNW 3.2 mph 4.8 mph 69 % 0.0 in
22:12 20.7 °F 15.0 °F 1019.9 in Calm   4.8 mph 70 % 0.0 in
22:17 20.6 °F 15.2 °F 1019.9 in Calm   4.8 mph 71 % 0.0 in
22:22 20.5 °F 15.1 °F 1019.9 in Calm   4.8 mph 71 % 0.0 in
22:32 20.4 °F 15.0 °F 1020.2 in West 1.6 mph 1.6 mph 71 % 0.0 in
22:37 20.4 °F 15.2 °F 1020.2 in Calm   3.2 mph 72 % 0.0 in
22:42 20.3 °F 15.3 °F 1020.2 in Calm   3.2 mph 73 % 0.0 in
22:47 20.2 °F 15.2 °F 1020.2 in Calm   3.2 mph 73 % 0.0 in
22:52 20.2 °F 15.4 °F 1020.5 in Calm   1.6 mph 74 % 0.0 in
22:57 20.2 °F 15.2 °F 1020.2 in Calm   1.6 mph 73 % 0.0 in
23:02 20.1 °F 15.3 °F 1020.5 in SW 1.6 mph 1.6 mph 74 % 0.0 in
23:07 20.1 °F 15.3 °F 1020.5 in Calm   3.2 mph 74 % 0.0 in
23:12 20.1 °F 15.3 °F 1020.5 in Calm   3.2 mph 74 % 0.0 in
23:17 20.1 °F 15.3 °F 1020.2 in SW 3.2 mph 3.2 mph 74 % 0.0 in
23:22 20.1 °F 15.5 °F 1020.2 in Calm   3.2 mph 75 % 0.0 in
23:32 20.1 °F 15.7 °F 1020.5 in WNW 1.6 mph 3.2 mph 76 % 0.0 in
23:37 20.1 °F 15.5 °F 1020.5 in West 3.2 mph 8.0 mph 75 % 0.0 in
23:42 20.2 °F 15.4 °F 1020.5 in West 1.6 mph 12.9 mph 74 % 0.0 in
23:47 20.2 °F 15.4 °F 1020.5 in WNW 6.4 mph 12.9 mph 74 % 0.0 in
23:52 20.2 °F 15.6 °F 1020.5 in WSW 4.8 mph 12.9 mph 75 % 0.0 in
23:57 20.2 °F 15.6 °F 1020.5 in WSW 3.2 mph 9.7 mph 75 % 0.0 in
Meteo18
Compliments of Weather Underground - 4 mb

Script developed by  Jim McMurry - jmcmurry@mwt.net Adapted for the template by  Wim van der Kuil - Leuven-Template.eu

You find our weather info also at:

European Weather Network

Weather Underground

Equipment we use:

Weather-station
Davis Vue

Weather-program
Meteobridge

Weather-server
Raspberry PI 2 B+

Provider
1 and 1

Davis Vue

Meteobridge

Raspberry PI 2 B+

1 and 1